Weather History for Keene, NH

Change the Weather History Date:

Monday, November 3, 2014

  Actual Average Record
Temperature  
Mean Temperature 38 °F -  
Max Temperature 51 °F 57 °F 76 °F (1982)
Min Temperature 26 °F 35 °F 16 °F (1934)
Degree Days  
Heating Degree Days 26    
Moisture  
Dew Point 14 °F    
Average Humidity 42    
Maximum Humidity 74    
Minimum Humidity 19    
Precipitation  
Precipitation 0.00 in - - ()
Sea Level Pressure  
Sea Level Pressure 29.98 in    
Wind  
Wind Speed 5 mph (NW)    
Max Wind Speed 16 mph    
Max Gust Speed 25 mph    
Visibility 10 miles    
Events      
Averages and records for this station are not official NWS values.
T = Trace of Precipitation, MM = Missing Value Source: NWS Daily Summary

Daily Weather History Graph

Daily Weather History Graph

Search for Another Location

Airport:

Trip Planner

Search our weather history database for the weather conditions in past years. The results will help you decide how hot, cold, wet, or windy it might be!

Date:

Astronomy

Nov. 03, 2014 Rise Set
Actual Time 6:25 AM EST 4:38 PM EST
Civil Twilight 5:56 AM EST 5:08 PM EST
Nautical Twilight 5:22 AM EST 5:41 PM EST
Astronomical Twilight 4:49 AM EST 6:14 PM EST
Moon 2:51 PM EST (11/3) 2:27 AM EST (11/3)
Length of Visible Light 11h 12m
Length of Day
10h 12m
Waxing Gibbous, 87% of the Moon is Illuminated
Nov 3
Waxing Gibbous
Nov 6
Full
Nov 14
Last Quarter
Nov 22
New
Nov 29
First Quarter

Hourly Weather History & Observations

Time (EST) Temp. Windchill Dew Point Humidity Pressure Visibility Wind Dir Wind Speed Gust Speed Precip Events Conditions
12:15 AM 35.6 °F 30.7 °F 10.4 °F 35% 29.89 in 10.0 mi NW 5.8 mph - N/A   Clear
12:35 AM 35.6 °F - 12.2 °F 38% 29.89 in 10.0 mi Calm Calm - N/A   Clear
12:55 AM 35.6 °F 29.9 °F 12.2 °F 38% 29.88 in 10.0 mi NW 6.9 mph - N/A   Clear
1:15 AM 35.6 °F 29.9 °F 12.2 °F 38% 29.89 in 10.0 mi NW 6.9 mph - N/A   Clear
1:35 AM 35.6 °F 30.7 °F 12.2 °F 38% 29.89 in 10.0 mi NW 5.8 mph - N/A   Clear
1:55 AM 35.6 °F 27.5 °F 12.2 °F 38% 29.89 in 10.0 mi WNW 11.5 mph - N/A   Clear
2:15 AM 35.6 °F 30.7 °F 12.2 °F 38% 29.88 in 10.0 mi WNW 5.8 mph - N/A   Clear
2:35 AM 33.8 °F 29.6 °F 12.2 °F 41% 29.88 in 10.0 mi West 4.6 mph - N/A   Clear
2:55 AM 33.8 °F 28.6 °F 12.2 °F 41% 29.89 in 10.0 mi WNW 5.8 mph - N/A   Clear
3:15 AM 33.8 °F 30.8 °F 12.2 °F 41% 29.89 in 10.0 mi WNW 3.5 mph - N/A   Clear
3:35 AM 33.8 °F 27.7 °F 12.2 °F 41% 29.89 in 10.0 mi WNW 6.9 mph - N/A   Clear
3:55 AM 33.8 °F 27.7 °F 12.2 °F 41% 29.90 in 10.0 mi WNW 6.9 mph - N/A   Clear
4:15 AM 33.8 °F 27.7 °F 12.2 °F 41% 29.91 in 10.0 mi NW 6.9 mph - N/A   Clear
4:35 AM 33.8 °F 27.7 °F 12.2 °F 41% 29.92 in 10.0 mi NNW 6.9 mph - N/A   Clear
4:55 AM 33.8 °F - 12.2 °F 41% 29.92 in 10.0 mi Calm Calm - N/A   Clear
5:15 AM 30.2 °F - 12.2 °F 47% 29.93 in 10.0 mi Calm Calm - N/A   Clear
5:35 AM 30.2 °F 26.7 °F 12.2 °F 47% 29.94 in 10.0 mi NNW 3.5 mph - N/A   Clear
5:55 AM 30.2 °F 25.4 °F 12.2 °F 47% 29.94 in 10.0 mi NW 4.6 mph - N/A   Clear
6:15 AM 30.2 °F - 12.2 °F 47% 29.95 in 10.0 mi Calm Calm - N/A   Clear
6:35 AM 30.2 °F 26.7 °F 12.2 °F 47% 29.96 in 10.0 mi NW 3.5 mph - N/A   Clear
6:55 AM 30.2 °F 25.4 °F 12.2 °F 47% 29.97 in 10.0 mi NW 4.6 mph - N/A   Clear
7:15 AM 33.8 °F 28.6 °F 14.0 °F 44% 29.98 in 10.0 mi NW 5.8 mph - N/A   Clear
7:35 AM 33.8 °F 30.8 °F 12.2 °F 41% 29.98 in 10.0 mi WNW 3.5 mph - N/A   Clear
7:55 AM 35.6 °F 29.2 °F 14.0 °F 41% 29.99 in 10.0 mi NNW 8.1 mph - N/A   Clear
8:15 AM 35.6 °F 31.7 °F 14.0 °F 41% 30.00 in 10.0 mi NW 4.6 mph - N/A   Clear
8:35 AM 35.6 °F 29.2 °F 14.0 °F 41% 30.00 in 10.0 mi NNW 8.1 mph - N/A   Clear
8:55 AM 37.4 °F 29.8 °F 12.2 °F 36% 30.01 in 10.0 mi North 11.5 mph - N/A   Clear
9:15 AM 39.2 °F 31.2 °F 12.2 °F 33% 30.01 in 10.0 mi NNW 13.8 mph 17.3 mph N/A   Clear
9:35 AM 41.0 °F 33.5 °F 12.2 °F 31% 30.02 in 10.0 mi NNW 13.8 mph 21.9 mph N/A   Clear
9:55 AM 41.0 °F 33.9 °F 10.4 °F 29% 30.01 in 10.0 mi NNW 12.7 mph 25.3 mph N/A   Clear
10:15 AM 42.8 °F 36.2 °F 10.4 °F 27% 30.01 in 10.0 mi NNW 12.7 mph 17.3 mph N/A   Clear
10:35 AM 44.6 °F 37.4 °F 10.4 °F 25% 30.01 in 10.0 mi NW 16.1 mph 24.2 mph N/A   Clear
10:55 AM 44.6 °F 38.1 °F 8.6 °F 23% 30.01 in 10.0 mi NW 13.8 mph 19.6 mph N/A   Clear
11:15 AM 44.6 °F 37.8 °F 6.8 °F 21% 30.00 in 10.0 mi NNW 15.0 mph 24.2 mph N/A   Clear
11:35 AM 46.4 °F 40.7 °F 6.8 °F 20% 30.00 in 10.0 mi NNW 12.7 mph 18.4 mph N/A   Clear
11:55 AM 46.4 °F 41.9 °F 6.8 °F 20% 29.99 in 10.0 mi NNW 9.2 mph - N/A   Clear
12:15 PM 48.2 °F - 6.8 °F 19% 29.99 in 10.0 mi NW 9.2 mph 20.7 mph N/A   Clear
12:35 PM 48.2 °F - 6.8 °F 19% 29.99 in 10.0 mi WNW 5.8 mph 19.6 mph N/A   Clear
12:55 PM 46.4 °F 44.3 °F 8.6 °F 22% 29.99 in 10.0 mi NW 4.6 mph - N/A   Clear
1:15 PM 48.2 °F - 10.4 °F 22% 29.99 in 10.0 mi West 10.4 mph 17.3 mph N/A   Clear
1:35 PM 48.2 °F - 10.4 °F 22% 29.98 in 10.0 mi NW 6.9 mph - N/A   Clear
1:55 PM 50.0 °F - 14.0 °F 24% 29.98 in 10.0 mi NW 6.9 mph - N/A   Clear
2:15 PM 51.8 °F - 14.0 °F 22% 29.98 in 10.0 mi NW 11.5 mph 18.4 mph N/A   Clear
2:35 PM 51.8 °F - 12.2 °F 21% 29.98 in 10.0 mi WNW 10.4 mph 17.3 mph N/A   Clear
2:55 PM 51.8 °F - 12.2 °F 21% 29.98 in 10.0 mi NW 12.7 mph 19.6 mph N/A   Clear
3:15 PM 51.8 °F - 12.2 °F 21% 29.98 in 10.0 mi WNW 6.9 mph - N/A   Clear
3:35 PM 51.8 °F - 14.0 °F 22% 29.98 in 10.0 mi WNW 4.6 mph - N/A   Clear
3:55 PM 51.8 °F - 15.8 °F 24% 29.99 in 10.0 mi WNW 4.6 mph - N/A   Clear
4:15 PM 51.8 °F - 15.8 °F 24% 29.99 in 10.0 mi NNW 3.5 mph - N/A   Clear
4:35 PM 48.2 °F - 17.6 °F 30% 29.99 in 10.0 mi NE 3.5 mph - N/A   Clear
4:55 PM 42.8 °F - 19.4 °F 39% 30.00 in 10.0 mi Calm Calm - N/A   Clear
5:15 PM 39.2 °F - 19.4 °F 45% 30.00 in 10.0 mi Calm Calm - N/A   Partly Cloudy
5:35 PM 37.4 °F - 21.2 °F 52% 30.01 in 10.0 mi Calm Calm - N/A   Clear
5:55 PM 37.4 °F - 21.2 °F 52% 30.01 in 10.0 mi Calm Calm - N/A   Clear
6:15 PM 35.6 °F - 21.2 °F 56% 30.02 in 10.0 mi Calm Calm - N/A   Clear
6:35 PM 35.6 °F - 21.2 °F 56% 30.03 in 10.0 mi Calm Calm - N/A   Clear
6:55 PM 35.6 °F - 19.4 °F 52% 30.03 in 10.0 mi Calm Calm - N/A   Clear
7:15 PM 33.8 °F - 19.4 °F 56% 30.03 in 10.0 mi Calm Calm - N/A   Clear
7:35 PM 33.8 °F - 19.4 °F 56% 30.04 in 10.0 mi Calm Calm - N/A   Clear
7:55 PM 33.8 °F - 21.2 °F 60% 30.04 in 10.0 mi Calm Calm - N/A   Clear
8:15 PM 32.0 °F - 21.2 °F 64% 30.05 in 10.0 mi Calm Calm - N/A   Clear
8:35 PM 30.2 °F - 19.4 °F 64% 30.05 in 10.0 mi Calm Calm - N/A   Clear
8:55 PM 30.2 °F - 19.4 °F 64% 30.06 in 10.0 mi Calm Calm - N/A   Clear
9:15 PM 30.2 °F - 19.4 °F 64% 30.06 in 10.0 mi Calm Calm - N/A   Clear
9:35 PM 30.2 °F - 19.4 °F 64% 30.06 in 10.0 mi Calm Calm - N/A   Clear
9:55 PM 28.4 °F - 19.4 °F 69% 30.06 in 10.0 mi Calm Calm - N/A   Clear
10:15 PM 28.4 °F - 19.4 °F 69% 30.07 in 10.0 mi Calm Calm - N/A   Clear
10:35 PM 28.4 °F - 19.4 °F 69% 30.07 in 10.0 mi Calm Calm - N/A   Clear
10:55 PM 28.4 °F - 19.4 °F 69% 30.07 in 10.0 mi Calm Calm - N/A   Clear
11:15 PM 28.4 °F - 19.4 °F 69% 30.08 in 10.0 mi Calm Calm - N/A   Clear
11:35 PM 26.6 °F - 19.4 °F 74% 30.08 in 10.0 mi Calm Calm - N/A   Clear
11:55 PM 28.4 °F - 19.4 °F 69% 30.08 in 10.0 mi Calm Calm - N/A   Clear